Regional Weather Roundup
Issued by NWS Goodland, KS

Home | Current Version | Previous Version | Text Only | Print | Product List | Glossary Off
Versions: 1 2 3 4 5 6 7 8 9 10 11 12 13 14 15 16 17 18 19 20 21 22 23 24 25 26 27 28 29 30 31 32 33 34 35 36 37 38 39 40 41 42 43 44 45 46 47 48 49 50

288
ASUS43 KGLD 191008
RWRGLD

GOODLAND FORECAST AREA HOURLY WEATHER ROUNDUP
NATIONAL WEATHER SERVICE GOODLAND KS
400 AM MDT SAT AUG 19 2017

...OFFICIAL OBSERVATIONS...

CITY           SKY/WX    TMP DP  RH WIND       PRES   REMARKS
GOODLAND KS    CLEAR     65  56  72 S12       30.05F
HILL CITY KS   CLEAR     61  58  90 W6        30.01S
IMPERIAL NEB   CLEAR     59  53  80 S3        30.04S
MCCOOK NEB     CLEAR     60  57  89 W3        30.00F
AKRON CO       CLEAR     67  53  61 S14       30.08F
BURLINGTON CO  CLEAR     62  56  80 S13       30.09F
LIMON CO       CLOUDY    52  52 100 CALM      30.16S
$$

...UNOFFICIAL OBSERVATIONS...

CITY           SKY/WX    TMP DP  RH WIND       PRES   REMARKS
LENORA KS        N/A     66  32  28 SW6         N/A
NORTON KS      CLEAR     55  50  82 CALM      30.00
SHARON SPRINGS   N/A     62  57  84 SE9         N/A
TRENTON NEB      N/A     63  32  31 CALM        N/A
KIT CARSON CO    N/A     64  57  78 CALM        N/A
YUMA CO        FAIR      59  45  58 S10       30.06S
$$




USA.gov is the U.S. government's official web portal to all federal, state and local government web resources and services.